QPF
0.09 0.16 0.14 0.08 0.07 0.07 0.07 0.07 0.09 0.09 0.10 0.11 0.13 0.14 0.16 0.16 0.16 0.15 0.15 0.13 0.11 0.11 0.10 0.09 0.08 0.08 0.07 0.06 0.05 0.05 0.05 0.04 0.04 0.04 0.05 0.04 0.06 0.06 0.09 0.09 0.08 0.06 0.10
0.06 0.11 0.13 0.07 0.05 0.05 0.07 0.08 0.09 0.09 0.10 0.11 0.12 0.14 0.14 0.15 0.14 0.13 0.11 0.10 0.09 0.10 0.09 0.07 0.06 0.05 0.06 0.05 0.04 0.04 0.04 0.04 0.06 0.08 0.08 0.06 0.07 0.06 0.08 0.08 0.05 0.06 0.09
0.04 0.05 0.08 0.07 0.06 0.04 0.06 0.10 0.10 0.10 0.12 0.14 0.16 0.17 0.14 0.11 0.11 0.10 0.10 0.10 0.09 0.10 0.09 0.06 0.04 0.05 0.05 0.04 0.03 0.02 0.03 0.04 0.06 0.07 0.06 0.03 0.04 0.06 0.07 0.08 0.06 0.06 0.07
0.02 0.03 0.04 0.06 0.05 0.04 0.05 0.07 0.07 0.09 0.09 0.10 0.12 0.12 0.10 0.09 0.09 0.09 0.08 0.08 0.08 0.10 0.08 0.05 0.03 0.03 0.02 0.03 0.02 0.02 0.03 0.05 0.06 0.04 0.01 0.01 0.01 0.05 0.07 0.08 0.06 0.05 0.05
0.01 0.02 0.03 0.03 0.03 0.04 0.03 0.04 0.05 0.05 0.05 0.06 0.07 0.08 0.09 0.09 0.09 0.08 0.07 0.07 0.07 0.08 0.07 0.05 0.04 0.03 0.02 0.02 0.02 0.03 0.02 0.03 0.04 0.02 0.01 0.00 0.01 0.05 0.07 0.07 0.04 0.04 0.04
0.01 0.01 0.01 0.02 0.02 0.03 0.03 0.03 0.04 0.04 0.04 0.05 0.05 0.06 0.07 0.08 0.08 0.08 0.07 0.07 0.06 0.07 0.05 0.04 0.03 0.03 0.03 0.03 0.03 0.03 0.02 0.02 0.01 0.00 0.00 0.00 0.00 0.04 0.07 0.07 0.04 0.03 0.03
0.01 0.01 0.01 0.01 0.02 0.02 0.02 0.03 0.02 0.03 0.04 0.04 0.05 0.06 0.08 0.10 0.10 0.08 0.06 0.07 0.07 0.07 0.05 0.03 0.03 0.03 0.03 0.04 0.04 0.02 0.03 0.03 0.01 0.00 0.00 0.00 0.01 0.03 0.06 0.06 0.04 0.03 0.02
0.01 0.01 0.01 0.01 0.01 0.01 0.02 0.02 0.02 0.02 0.03 0.03 0.04 0.06 0.09 0.13 0.10 0.08 0.07 0.08 0.09 0.06 0.04 0.02 0.03 0.03 0.03 0.03 0.04 0.03 0.04 0.02 0.01 0.00 0.00 0.00 0.01 0.02 0.04 0.05 0.05 0.04 0.02
0.00 0.00 0.00 0.00 0.01 0.02 0.02 0.05 0.06 0.03 0.03 0.02 0.03 0.06 0.09 0.10 0.07 0.07 0.07 0.07 0.07 0.05 0.03 0.03 0.02 0.03 0.03 0.03 0.03 0.03 0.04 0.02 0.01 0.00 0.00 0.00 0.01 0.02 0.03 0.04 0.05 0.04 0.02
0.00 0.00 0.00 0.00 0.00 0.01 0.04 0.09 0.12 0.06 0.04 0.03 0.04 0.08 0.10 0.08 0.07 0.06 0.05 0.05 0.05 0.04 0.03 0.03 0.03 0.04 0.05 0.04 0.03 0.03 0.04 0.02 0.00 0.00 0.00 0.01 0.01 0.02 0.03 0.03 0.03 0.03 0.03
0.00 0.00 0.00 0.00 0.00 0.01 0.05 0.09 0.11 0.10 0.08 0.08 0.12 0.15 0.11 0.06 0.06 0.05 0.03 0.03 0.04 0.04 0.04 0.04 0.04 0.04 0.05 0.04 0.05 0.04 0.03 0.01 0.00 0.00 0.00 0.01 0.01 0.01 0.02 0.02 0.02 0.02 0.02
0.00 0.00 0.00 0.00 0.00 0.01 0.03 0.03 0.06 0.07 0.09 0.14 0.20 0.18 0.09 0.06 0.06 0.06 0.04 0.04 0.04 0.04 0.04 0.05 0.05 0.04 0.02 0.01 0.03 0.02 0.01 0.01 0.00 0.00 0.00 0.01 0.02 0.02 0.02 0.02 0.02 0.02 0.02
0.01 0.00 0.00 0.00 0.00 0.00 0.01 0.02 0.04 0.06 0.08 0.15 0.18 0.10 0.05 0.05 0.06 0.04 0.03 0.03 0.03 0.02 0.02 0.02 0.02 0.02 0.02 0.01 0.01 0.02 0.03 0.02 0.01 0.01 0.01 0.01 0.02 0.02 0.02 0.02 0.01 0.01 0.01
0.02 0.01 0.01 0.00 0.01 0.01 0.01 0.03 0.03 0.04 0.07 0.11 0.09 0.05 0.03 0.04 0.04 0.02 0.02 0.01 0.01 0.01 0.01 0.01 0.02 0.02 0.02 0.02 0.02 0.02 0.03 0.03 0.04 0.02 0.01 0.01 0.02 0.02 0.03 0.02 0.01 0.01 0.01
0.03 0.03 0.02 0.02 0.03 0.04 0.04 0.04 0.04 0.04 0.06 0.07 0.05 0.04 0.03 0.02 0.02 0.01 0.01 0.01 0.01 0.01 0.01 0.01 0.01 0.01 0.01 0.02 0.03 0.03 0.02 0.03 0.04 0.02 0.01 0.01 0.01 0.01 0.02 0.02 0.02 0.01 0.01
0.03 0.04 0.03 0.04 0.06 0.08 0.06 0.06 0.05 0.04 0.05 0.04 0.04 0.03 0.02 0.01 0.01 0.01 0.01 0.01 0.01 0.01 0.02 0.02 0.01 0.01 0.02 0.02 0.03 0.03 0.02 0.02 0.02 0.02 0.01 0.01 0.02 0.02 0.02 0.02 0.03 0.02 0.02
0.02 0.02 0.02 0.02 0.02 0.07 0.12 0.10 0.07 0.06 0.05 0.04 0.03 0.02 0.01 0.01 0.02 0.02 0.02 0.02 0.02 0.01 0.01 0.01 0.01 0.02 0.02 0.03 0.03 0.03 0.03 0.02 0.02 0.02 0.01 0.01 0.02 0.02 0.02 0.02 0.03 0.03 0.03
0.01 0.01 0.01 0.01 0.02 0.05 0.10 0.11 0.07 0.06 0.05 0.05 0.04 0.03 0.03 0.03 0.04 0.03 0.03 0.02 0.01 0.02 0.02 0.02 0.03 0.03 0.03 0.03 0.04 0.04 0.04 0.03 0.02 0.02 0.02 0.02 0.02 0.01 0.02 0.03 0.05 0.05 0.04
0.00 0.00 0.00 0.00 0.01 0.02 0.03 0.04 0.04 0.04 0.04 0.04 0.02 0.02 0.03 0.05 0.05 0.04 0.04 0.03 0.03 0.04 0.04 0.03 0.03 0.03 0.05 0.06 0.06 0.04 0.04 0.03 0.02 0.02 0.01 0.02 0.02 0.01 0.02 0.03 0.06 0.06 0.06
0.00 0.00 0.00 0.00 0.00 0.01 0.01 0.02 0.02 0.02 0.02 0.03 0.02 0.02 0.03 0.04 0.05 0.05 0.05 0.04 0.03 0.05 0.05 0.04 0.04 0.04 0.06 0.06 0.03 0.02 0.02 0.02 0.02 0.02 0.02 0.01 0.02 0.02 0.02 0.02 0.02 0.03 0.06
0.00 0.00 0.00 0.00 0.00 0.01 0.01 0.01 0.02 0.03 0.02 0.02 0.02 0.01 0.03 0.02 0.03 0.03 0.04 0.05 0.05 0.04 0.04 0.05 0.05 0.05 0.05 0.06 0.03 0.01 0.01 0.01 0.01 0.02 0.02 0.03 0.02 0.02 0.02 0.03 0.03 0.03 0.03
0.00 0.00 0.00 0.00 0.00 0.00 0.00 0.01 0.02 0.03 0.02 0.02 0.01 0.02 0.03 0.03 0.02 0.03 0.05 0.05 0.05 0.05 0.04 0.05 0.06 0.05 0.05 0.06 0.05 0.04 0.01 0.01 0.01 0.01 0.02 0.02 0.03 0.03 0.03 0.05 0.05 0.04 0.04
0.01 0.01 0.01 0.01 0.01 0.01 0.01 0.01 0.01 0.02 0.02 0.02 0.03 0.04 0.04 0.03 0.04 0.06 0.07 0.08 0.07 0.06 0.05 0.07 0.09 0.09 0.05 0.06 0.07 0.06 0.02 0.01 0.01 0.01 0.01 0.01 0.02 0.03 0.04 0.04 0.05 0.06 0.05
0.01 0.01 0.01 0.01 0.01 0.01 0.01 0.01 0.02 0.03 0.02 0.03 0.04 0.04 0.03 0.03 0.04 0.05 0.07 0.09 0.08 0.06 0.05 0.05 0.07 0.10 0.08 0.05 0.05 0.04 0.03 0.03 0.03 0.02 0.01 0.02 0.02 0.03 0.03 0.03 0.03 0.05 0.05
0.01 0.01 0.01 0.02 0.02 0.02 0.03 0.03 0.03 0.03 0.03 0.04 0.03 0.02 0.02 0.02 0.03 0.03 0.04 0.06 0.09 0.06 0.05 0.04 0.06 0.09 0.08 0.05 0.04 0.03 0.04 0.05 0.04 0.02 0.01 0.01 0.02 0.02 0.02 0.02 0.02 0.03 0.04
0.00 0.00 0.01 0.02 0.03 0.04 0.04 0.04 0.03 0.02 0.02 0.03 0.02 0.01 0.02 0.03 0.03 0.03 0.04 0.04 0.05 0.05 0.04 0.04 0.04 0.06 0.06 0.05 0.04 0.03 0.05 0.05 0.04 0.03 0.01 0.01 0.01 0.01 0.01 0.02 0.02 0.03 0.04
MSLP
1012.78 1012.12 1011.56 1011.18 1010.97 1010.91 1010.94 1011.00 1011.03 1010.98 1010.87 1010.70 1010.54 1010.43 1010.41 1010.49 1010.67 1010.92 1011.18 1011.44 1011.66 1011.87 1012.06 1012.27 1012.53 1012.85 1013.22 1013.63 1014.05 1014.44 1014.80 1015.11 1015.40 1015.68 1015.98 1016.32 1016.70 1017.10 1017.49 1017.85 1018.14 1018.37 1018.54
1012.96 1012.38 1011.91 1011.59 1011.43 1011.42 1011.49 1011.57 1011.62 1011.59 1011.49 1011.34 1011.21 1011.13 1011.14 1011.25 1011.44 1011.68 1011.93 1012.14 1012.32 1012.46 1012.59 1012.74 1012.94 1013.21 1013.54 1013.92 1014.31 1014.69 1015.04 1015.35 1015.63 1015.91 1016.20 1016.53 1016.89 1017.26 1017.64 1017.97 1018.26 1018.49 1018.68
1013.04 1012.55 1012.15 1011.90 1011.81 1011.86 1011.97 1012.10 1012.18 1012.18 1012.11 1011.99 1011.88 1011.83 1011.86 1011.97 1012.15 1012.37 1012.58 1012.75 1012.87 1012.95 1013.03 1013.13 1013.30 1013.54 1013.85 1014.21 1014.59 1014.96 1015.31 1015.62 1015.90 1016.18 1016.47 1016.78 1017.12 1017.47 1017.81 1018.13 1018.40 1018.63 1018.83
1013.07 1012.65 1012.33 1012.16 1012.14 1012.25 1012.42 1012.59 1012.71 1012.74 1012.70 1012.61 1012.53 1012.49 1012.52 1012.63 1012.79 1012.97 1013.13 1013.25 1013.32 1013.37 1013.42 1013.50 1013.65 1013.87 1014.18 1014.54 1014.92 1015.29 1015.64 1015.96 1016.25 1016.53 1016.81 1017.11 1017.42 1017.74 1018.05 1018.34 1018.60 1018.82 1019.03
1013.10 1012.75 1012.51 1012.41 1012.47 1012.63 1012.85 1013.06 1013.20 1013.26 1013.24 1013.18 1013.11 1013.08 1013.10 1013.19 1013.32 1013.46 1013.59 1013.67 1013.71 1013.74 1013.78 1013.86 1014.01 1014.25 1014.56 1014.93 1015.31 1015.69 1016.04 1016.37 1016.66 1016.94 1017.23 1017.51 1017.80 1018.08 1018.36 1018.62 1018.86 1019.08 1019.29
1013.18 1012.91 1012.74 1012.71 1012.82 1013.03 1013.28 1013.51 1013.66 1013.73 1013.71 1013.66 1013.60 1013.57 1013.59 1013.67 1013.77 1013.88 1013.98 1014.03 1014.06 1014.09 1014.14 1014.24 1014.42 1014.68 1015.00 1015.37 1015.76 1016.14 1016.49 1016.82 1017.12 1017.40 1017.68 1017.95 1018.22 1018.48 1018.73 1018.95 1019.16 1019.37 1019.58
1013.34 1013.14 1013.04 1013.08 1013.23 1013.46 1013.72 1013.93 1014.07 1014.12 1014.11 1014.05 1014.00 1013.98 1014.00 1014.07 1014.17 1014.26 1014.33 1014.38 1014.41 1014.45 1014.52 1014.65 1014.86 1015.13 1015.47 1015.85 1016.23 1016.60 1016.95 1017.27 1017.57 1017.85 1018.13 1018.40 1018.66 1018.89 1019.11 1019.30 1019.49 1019.67 1019.88
1013.60 1013.46 1013.43 1013.51 1013.69 1013.92 1014.15 1014.33 1014.44 1014.46 1014.43 1014.37 1014.33 1014.32 1014.37 1014.45 1014.54 1014.63 1014.70 1014.74 1014.78 1014.83 1014.92 1015.07 1015.30 1015.60 1015.94 1016.31 1016.68 1017.03 1017.37 1017.67 1017.97 1018.25 1018.53 1018.80 1019.05 1019.27 1019.46 1019.63 1019.78 1019.95 1020.13
1013.90 1013.83 1013.86 1013.98 1014.18 1014.40 1014.58 1014.71 1014.76 1014.75 1014.70 1014.65 1014.63 1014.65 1014.73 1014.83 1014.94 1015.03 1015.10 1015.14 1015.17 1015.22 1015.32 1015.49 1015.73 1016.03 1016.37 1016.73 1017.08 1017.41 1017.72 1018.01 1018.29 1018.57 1018.85 1019.12 1019.36 1019.57 1019.75 1019.90 1020.03 1020.17 1020.34
1014.20 1014.20 1014.29 1014.46 1014.66 1014.85 1014.99 1015.06 1015.06 1015.01 1014.95 1014.91 1014.93 1015.00 1015.12 1015.26 1015.39 1015.48 1015.54 1015.57 1015.59 1015.63 1015.73 1015.89 1016.13 1016.42 1016.76 1017.09 1017.42 1017.73 1018.01 1018.28 1018.55 1018.82 1019.09 1019.36 1019.60 1019.81 1019.98 1020.11 1020.23 1020.35 1020.50
1014.43 1014.51 1014.67 1014.87 1015.08 1015.25 1015.35 1015.36 1015.32 1015.25 1015.19 1015.19 1015.25 1015.38 1015.55 1015.73 1015.88 1015.98 1016.03 1016.03 1016.03 1016.05 1016.13 1016.28 1016.50 1016.78 1017.10 1017.42 1017.73 1018.00 1018.26 1018.51 1018.75 1019.01 1019.27 1019.54 1019.78 1019.99 1020.15 1020.28 1020.39 1020.50 1020.64
1014.56 1014.72 1014.95 1015.20 1015.42 1015.57 1015.64 1015.62 1015.56 1015.48 1015.44 1015.48 1015.60 1015.79 1016.01 1016.23 1016.40 1016.51 1016.54 1016.51 1016.48 1016.47 1016.52 1016.65 1016.86 1017.13 1017.43 1017.74 1018.03 1018.28 1018.52 1018.73 1018.96 1019.19 1019.44 1019.69 1019.93 1020.13 1020.30 1020.44 1020.55 1020.66 1020.79
1014.58 1014.82 1015.11 1015.40 1015.64 1015.79 1015.85 1015.82 1015.75 1015.69 1015.68 1015.77 1015.95 1016.19 1016.47 1016.73 1016.92 1017.02 1017.03 1016.99 1016.92 1016.88 1016.91 1017.02 1017.22 1017.48 1017.78 1018.08 1018.36 1018.60 1018.81 1019.00 1019.19 1019.39 1019.61 1019.85 1020.07 1020.28 1020.46 1020.60 1020.72 1020.84 1020.98
1014.50 1014.80 1015.15 1015.48 1015.74 1015.90 1015.96 1015.94 1015.89 1015.86 1015.90 1016.03 1016.26 1016.56 1016.88 1017.16 1017.37 1017.47 1017.48 1017.42 1017.34 1017.28 1017.30 1017.41 1017.60 1017.87 1018.17 1018.47 1018.74 1018.97 1019.15 1019.32 1019.47 1019.64 1019.83 1020.03 1020.24 1020.44 1020.63 1020.78 1020.92 1021.06 1021.21
1014.36 1014.71 1015.09 1015.44 1015.73 1015.91 1015.99 1015.99 1015.98 1015.98 1016.07 1016.25 1016.52 1016.85 1017.19 1017.49 1017.71 1017.82 1017.84 1017.78 1017.71 1017.66 1017.69 1017.81 1018.01 1018.29 1018.60 1018.90 1019.17 1019.38 1019.55 1019.68 1019.80 1019.92 1020.07 1020.23 1020.42 1020.61 1020.80 1020.98 1021.14 1021.30 1021.46
1014.20 1014.56 1014.95 1015.32 1015.62 1015.82 1015.93 1015.98 1016.01 1016.06 1016.19 1016.40 1016.69 1017.03 1017.38 1017.69 1017.91 1018.04 1018.08 1018.05 1018.01 1018.00 1018.06 1018.21 1018.43 1018.72 1019.04 1019.35 1019.61 1019.82 1019.97 1020.07 1020.15 1020.22 1020.32 1020.45 1020.60 1020.78 1020.97 1021.16 1021.34 1021.52 1021.71
1014.06 1014.41 1014.78 1015.14 1015.45 1015.67 1015.83 1015.93 1016.01 1016.11 1016.26 1016.49 1016.78 1017.11 1017.45 1017.75 1017.98 1018.13 1018.21 1018.23 1018.25 1018.29 1018.40 1018.58 1018.84 1019.15 1019.47 1019.78 1020.04 1020.24 1020.37 1020.44 1020.48 1020.52 1020.57 1020.65 1020.77 1020.92 1021.10 1021.29 1021.50 1021.70 1021.90
1013.94 1014.25 1014.59 1014.93 1015.24 1015.49 1015.70 1015.86 1016.00 1016.15 1016.33 1016.56 1016.83 1017.13 1017.43 1017.70 1017.93 1018.11 1018.23 1018.32 1018.41 1018.52 1018.69 1018.91 1019.19 1019.52 1019.84 1020.15 1020.41 1020.59 1020.71 1020.77 1020.79 1020.79 1020.80 1020.83 1020.91 1021.03 1021.19 1021.38 1021.59 1021.80 1022.01
1013.82 1014.08 1014.38 1014.70 1015.01 1015.30 1015.56 1015.79 1016.00 1016.20 1016.40 1016.62 1016.85 1017.10 1017.36 1017.60 1017.82 1018.01 1018.18 1018.34 1018.51 1018.69 1018.92 1019.18 1019.48 1019.81 1020.13 1020.43 1020.68 1020.87 1020.99 1021.04 1021.05 1021.03 1021.01 1021.00 1021.04 1021.12 1021.24 1021.41 1021.60 1021.82 1022.03
1013.65 1013.88 1014.14 1014.45 1014.77 1015.11 1015.44 1015.74 1016.02 1016.27 1016.50 1016.70 1016.89 1017.09 1017.28 1017.48 1017.68 1017.89 1018.10 1018.32 1018.55 1018.80 1019.08 1019.37 1019.69 1020.01 1020.32 1020.61 1020.86 1021.06 1021.19 1021.26 1021.27 1021.25 1021.21 1021.17 1021.16 1021.19 1021.27 1021.40 1021.57 1021.76 1021.97
1013.40 1013.60 1013.85 1014.16 1014.51 1014.91 1015.31 1015.71 1016.07 1016.37 1016.62 1016.81 1016.96 1017.09 1017.22 1017.37 1017.55 1017.76 1018.00 1018.27 1018.56 1018.86 1019.17 1019.49 1019.80 1020.11 1020.41 1020.69 1020.94 1021.16 1021.32 1021.42 1021.46 1021.46 1021.41 1021.35 1021.30 1021.28 1021.29 1021.37 1021.49 1021.65 1021.84
1013.03 1013.24 1013.50 1013.82 1014.22 1014.68 1015.17 1015.66 1016.10 1016.47 1016.74 1016.93 1017.05 1017.12 1017.19 1017.29 1017.44 1017.64 1017.90 1018.20 1018.53 1018.87 1019.20 1019.52 1019.82 1020.11 1020.40 1020.67 1020.94 1021.18 1021.38 1021.54 1021.63 1021.65 1021.62 1021.55 1021.46 1021.38 1021.33 1021.33 1021.39 1021.51 1021.67
1012.53 1012.78 1013.07 1013.44 1013.89 1014.42 1014.99 1015.56 1016.08 1016.51 1016.82 1017.01 1017.10 1017.14 1017.16 1017.22 1017.34 1017.53 1017.80 1018.12 1018.47 1018.82 1019.15 1019.46 1019.75 1020.02 1020.28 1020.56 1020.84 1021.12 1021.38 1021.59 1021.74 1021.82 1021.81 1021.73 1021.61 1021.48 1021.36 1021.29 1021.28 1021.34 1021.46
1011.94 1012.25 1012.58 1013.00 1013.50 1014.09 1014.73 1015.37 1015.96 1016.44 1016.79 1016.99 1017.08 1017.09 1017.09 1017.12 1017.21 1017.40 1017.66 1017.99 1018.35 1018.70 1019.03 1019.32 1019.58 1019.83 1020.08 1020.35 1020.65 1020.97 1021.28 1021.56 1021.78 1021.91 1021.93 1021.86 1021.73 1021.55 1021.37 1021.23 1021.15 1021.15 1021.22
1011.32 1011.69 1012.07 1012.52 1013.06 1013.69 1014.37 1015.06 1015.70 1016.22 1016.60 1016.83 1016.93 1016.94 1016.93 1016.94 1017.03 1017.20 1017.47 1017.80 1018.15 1018.49 1018.81 1019.08 1019.31 1019.54 1019.77 1020.04 1020.36 1020.71 1021.08 1021.42 1021.70 1021.88 1021.94 1021.90 1021.75 1021.55 1021.32 1021.12 1020.98 1020.93 1020.96
1010.73 1011.15 1011.56 1012.03 1012.58 1013.22 1013.91 1014.62 1015.28 1015.84 1016.24 1016.50 1016.61 1016.64 1016.64 1016.66 1016.75 1016.92 1017.19 1017.51 1017.85 1018.19 1018.48 1018.73 1018.95 1019.15 1019.37 1019.64 1019.96 1020.34 1020.74 1021.13 1021.46 1021.69 1021.80 1021.78 1021.65 1021.44 1021.19 1020.96 1020.78 1020.68 1020.68
Thickness
5771 5775 5777 5777 5778 5778 5779 5779 5779 5779 5778 5778 5777 5776 5775 5774 5772 5771 5770 5769 5768 5767 5765 5764 5763 5762 5761 5759 5757 5755 5753 5752 5750 5749 5747 5745 5743 5742 5740 5739 5737 5736 5734
5774 5775 5776 5776 5776 5777 5777 5777 5778 5777 5777 5775 5774 5773 5773 5772 5770 5769 5768 5767 5766 5765 5764 5762 5761 5759 5758 5757 5755 5753 5751 5749 5748 5746 5745 5743 5741 5739 5738 5737 5735 5733 5732
5774 5774 5774 5774 5774 5775 5775 5775 5775 5775 5774 5772 5771 5771 5770 5769 5768 5767 5765 5764 5764 5763 5762 5760 5759 5757 5755 5754 5752 5751 5749 5747 5746 5744 5742 5740 5739 5737 5736 5734 5733 5731 5730
5774 5773 5773 5773 5773 5773 5773 5773 5773 5772 5771 5770 5769 5768 5768 5766 5765 5765 5763 5762 5761 5761 5759 5758 5756 5755 5753 5751 5750 5748 5747 5745 5744 5742 5740 5738 5737 5735 5734 5732 5731 5729 5728
5773 5772 5772 5772 5771 5771 5771 5771 5771 5770 5769 5768 5767 5766 5765 5764 5763 5762 5761 5760 5759 5758 5757 5755 5754 5753 5751 5749 5748 5747 5745 5743 5741 5740 5738 5736 5735 5733 5732 5730 5729 5728 5726
5772 5771 5771 5770 5770 5769 5769 5768 5768 5768 5767 5766 5765 5764 5763 5762 5761 5760 5759 5758 5757 5756 5755 5753 5752 5751 5749 5748 5746 5745 5743 5741 5739 5737 5736 5734 5733 5732 5730 5729 5727 5726 5725
5770 5770 5769 5769 5768 5767 5767 5767 5766 5765 5765 5763 5762 5762 5761 5760 5759 5758 5757 5756 5755 5754 5752 5751 5750 5749 5748 5746 5745 5743 5741 5739 5737 5736 5734 5732 5731 5730 5729 5727 5726 5725 5724
5770 5769 5768 5767 5766 5766 5765 5765 5764 5764 5763 5761 5761 5759 5759 5757 5756 5755 5754 5753 5752 5751 5750 5749 5748 5747 5746 5745 5743 5742 5740 5738 5736 5734 5733 5731 5730 5729 5727 5726 5724 5723 5722
5769 5767 5766 5765 5765 5764 5763 5763 5762 5761 5760 5759 5758 5758 5757 5755 5754 5753 5752 5751 5751 5749 5748 5747 5746 5745 5744 5743 5742 5740 5739 5737 5734 5733 5731 5730 5729 5727 5726 5724 5723 5723 5721
5767 5766 5765 5764 5763 5762 5761 5761 5760 5759 5758 5757 5756 5755 5754 5753 5753 5752 5751 5750 5749 5748 5747 5745 5744 5743 5743 5742 5741 5739 5737 5735 5733 5732 5730 5729 5728 5726 5725 5724 5723 5722 5720
5765 5764 5764 5763 5762 5761 5760 5759 5758 5757 5756 5755 5754 5753 5752 5751 5751 5750 5749 5749 5748 5746 5745 5744 5743 5742 5742 5741 5740 5738 5736 5734 5733 5731 5729 5728 5727 5726 5724 5723 5721 5720 5719
5763 5763 5763 5762 5761 5760 5759 5758 5756 5755 5754 5753 5752 5751 5750 5749 5749 5748 5748 5747 5746 5745 5744 5743 5742 5741 5740 5739 5738 5737 5735 5733 5732 5730 5729 5728 5726 5725 5724 5722 5721 5719 5718
5765 5764 5764 5762 5761 5759 5758 5756 5755 5754 5753 5752 5750 5750 5749 5748 5747 5746 5746 5745 5745 5744 5743 5742 5741 5740 5739 5738 5737 5736 5734 5733 5732 5730 5729 5727 5726 5725 5723 5722 5720 5719 5717
5766 5765 5765 5764 5761 5759 5757 5756 5754 5752 5751 5751 5750 5748 5748 5746 5745 5744 5744 5744 5743 5743 5742 5741 5740 5739 5738 5737 5737 5736 5734 5733 5732 5730 5729 5728 5727 5725 5723 5722 5720 5719 5718
5768 5767 5766 5765 5762 5760 5757 5756 5754 5752 5750 5750 5749 5748 5747 5746 5744 5743 5743 5743 5742 5742 5742 5741 5740 5739 5739 5738 5737 5736 5735 5734 5732 5731 5730 5729 5727 5726 5724 5722 5721 5719 5718
5771 5769 5768 5766 5764 5761 5758 5756 5754 5752 5750 5749 5748 5748 5746 5745 5744 5743 5742 5742 5742 5742 5741 5740 5740 5739 5739 5738 5737 5736 5735 5734 5733 5732 5730 5729 5728 5726 5724 5723 5722 5720 5719
5775 5773 5771 5769 5766 5763 5760 5757 5755 5753 5751 5749 5748 5747 5746 5745 5744 5743 5742 5742 5742 5742 5741 5740 5739 5739 5739 5738 5737 5737 5735 5734 5733 5732 5731 5730 5729 5727 5725 5724 5723 5721 5720
5778 5775 5774 5773 5768 5765 5762 5759 5757 5754 5752 5750 5749 5747 5746 5745 5744 5743 5742 5742 5742 5741 5741 5740 5739 5738 5737 5737 5736 5736 5736 5735 5734 5733 5732 5731 5729 5728 5727 5725 5724 5723 5721
5781 5778 5775 5774 5771 5768 5765 5761 5759 5756 5754 5751 5750 5748 5747 5746 5745 5744 5743 5743 5742 5741 5740 5740 5739 5737 5735 5735 5736 5736 5736 5736 5735 5734 5733 5732 5730 5729 5728 5727 5725 5724 5723
5784 5781 5778 5775 5773 5770 5766 5762 5759 5757 5755 5753 5751 5750 5749 5747 5746 5744 5743 5742 5741 5741 5740 5739 5738 5737 5735 5735 5736 5736 5736 5736 5736 5735 5734 5733 5732 5731 5729 5728 5727 5725 5724
5785 5782 5779 5776 5773 5770 5766 5762 5758 5755 5755 5754 5753 5752 5750 5749 5747 5745 5744 5742 5741 5740 5739 5739 5737 5736 5734 5734 5732 5732 5734 5736 5736 5736 5735 5734 5733 5732 5731 5730 5728 5726 5725
5788 5785 5782 5779 5776 5773 5770 5767 5762 5759 5757 5756 5755 5753 5751 5749 5748 5746 5744 5743 5742 5740 5739 5738 5737 5735 5734 5734 5731 5727 5725 5728 5733 5736 5736 5735 5735 5733 5732 5731 5730 5728 5727
5791 5788 5786 5783 5779 5776 5773 5768 5764 5760 5757 5755 5753 5752 5752 5750 5748 5747 5745 5744 5742 5741 5739 5739 5738 5735 5732 5732 5732 5728 5722 5719 5725 5732 5734 5735 5735 5734 5733 5732 5731 5730 5729
5795 5793 5789 5786 5783 5778 5774 5770 5765 5759 5755 5755 5754 5754 5753 5751 5749 5748 5746 5744 5743 5741 5740 5740 5739 5737 5734 5731 5731 5731 5729 5727 5722 5723 5729 5733 5733 5733 5733 5733 5733 5731 5730
5799 5795 5791 5787 5784 5780 5776 5772 5768 5763 5760 5758 5756 5754 5752 5751 5749 5748 5746 5744 5743 5742 5741 5740 5739 5737 5735 5733 5731 5730 5728 5726 5724 5721 5721 5726 5729 5732 5733 5733 5733 5732 5731
5801 5797 5793 5788 5784 5781 5777 5773 5770 5765 5761 5758 5755 5753 5752 5751 5750 5748 5747 5745 5744 5742 5741 5740 5739 5738 5736 5734 5732 5731 5728 5725 5723 5721 5719 5721 5723 5728 5731 5731 5731 5731 5730